[[{"header":{"parameterUnit":"m.s-1","parameterCategory":1,"la1":30.2991,"la2":30.254,"lo1":-89.0895,"lo2":-89.0444,"dy":0.0017,"dx":0.0017,"nx":28,"ny":28,"refTime":"2023-10-16T03:00:00:Z","depth":0,"parameterNumber":2,"parameterNumberName":"U-component_of_WINDS"},"data":[0,0,0,0,0,0,0,0,0,0,0,0,0,0,0,0,0,0,0,0,0,0,0,0,0,0,0,0,0,0,0,0,0,0,0,0,0,0,0,0,0,0,0,0,0,0,0,0,0,0,0,0,0,0,0,0,0,0,2.6618,2.6618,0,2.6656,2.6656,2.6656,2.6643,2.6642,2.6641,2.664,2.668,2.6682,2.6684,0,0,0,0,0,0,0,0,0,0,0,0,0,2.6537,2.6539,2.6618,2.6618,2.6619,2.6655,2.6656,2.6657,2.6643,2.6642,2.6641,2.664,2.6679,2.6682,2.6684,0,0,0,0,0,0,0,0,0,0,0,0,0,2.6573,2.6539,2.6618,2.6616,2.6617,2.6655,2.6656,2.6657,2.6643,2.6642,2.664,2.6639,2.6679,2.6681,2.6684,2.6727,0,0,2.6693,2.6694,0,0,0,0,0,0,0,0,2.6571,2.6576,2.6616,2.6617,2.6617,2.6643,2.6642,2.668,2.6643,2.6633,2.664,2.6638,2.6669,2.6672,2.6682,2.6729,2.6731,2.6693,2.6695,2.6696,2.6697,0,0,0,0,0,0,0,2.6569,2.6575,2.6633,2.6617,2.6617,2.6615,2.6619,2.6649,2.6658,2.6634,2.6633,2.6637,2.6669,2.668,2.6683,2.6731,2.6693,2.6695,2.6697,2.6698,2.6818,2.6819,0,0,0,0,0,0,2.6566,2.6573,2.6632,2.6634,2.659,2.6617,2.6621,2.6636,2.6657,2.6659,2.6638,2.6637,2.6675,2.668,2.6684,2.6738,2.6696,2.6698,2.67,2.6816,2.6818,2.682,0,0,0,0,0,0,2.6564,2.6571,2.663,2.6603,2.661,2.662,2.6636,2.6637,2.6648,2.6661,2.6662,2.6648,2.6675,2.6681,2.6717,2.6739,2.67,2.6702,2.6815,2.6817,2.6819,2.6843,0,0,0,0,0,0,2.6562,2.6571,2.6586,2.6604,2.6612,2.6661,2.6638,2.6639,2.6653,2.6651,2.667,2.6672,2.6674,2.6713,2.672,2.6742,2.6704,2.6813,2.6816,2.6818,2.684,2.6846,2.6851,0,0,0,0,0,2.6559,2.6591,2.6587,2.6594,2.6631,2.6662,2.6667,2.6668,2.6654,2.6671,2.668,2.6671,2.6735,2.6717,2.6724,2.6748,2.6811,2.6815,2.6818,2.6838,2.6845,2.6851,0,0,0,0,0,0,2.6576,2.6593,2.6589,2.6627,2.6644,2.666,2.668,2.6675,2.6696,2.6693,2.6695,2.6699,2.6737,2.6746,2.6725,2.6792,2.6771,2.6777,2.6784,2.6791,2.6796,2.6793,2.6707,0,0,0,0,0,2.6584,2.6607,2.6622,2.6654,2.6663,2.667,2.6684,2.6684,2.6701,2.6707,2.6718,2.6736,2.676,2.6776,2.6799,2.6842,2.6847,2.6862,2.6867,2.6871,2.6876,2.6901,2.6908,2.6831,2.6831,2.6831,0,0,2.6602,2.6614,2.6628,2.6658,2.6671,2.6696,2.6676,2.6703,2.6722,2.6712,2.6747,2.6756,2.6776,2.6816,2.6835,2.6825,2.6898,2.6876,2.6879,2.6881,2.6905,2.6913,2.6919,2.6833,2.6833,2.6832,0,0,2.6646,2.6657,2.6686,2.6699,2.6719,2.6724,2.6731,2.6749,2.6755,2.679,2.6784,2.6807,2.6848,2.6863,2.6876,2.6929,2.6923,2.6936,2.6963,2.6988,2.6994,2.6999,2.7019,2.7026,2.6941,2.6941,2.6941,0,2.6665,2.6701,2.6702,2.673,2.6744,2.6736,2.6767,2.678,2.6806,2.6817,2.6805,2.6858,2.6871,2.6916,2.6929,2.694,2.6949,2.6934,2.6993,2.6998,2.7003,2.7022,2.703,2.6942,2.6942,2.6942,2.6942,0,2.6724,2.675,2.6771,2.6797,2.6813,2.6842,2.6849,2.6866,2.6866,2.6872,2.691,2.6925,2.6952,2.6963,2.6962,2.7009,2.7002,2.6992,2.6972,2.7012,2.703,2.7037,2.6944,2.6944,2.6943,2.6943,0,0,2.6778,2.6805,2.6813,2.6826,2.6847,2.6868,2.6898,2.6924,2.6939,2.6958,2.6984,2.702,2.7012,2.7027,2.7028,2.705,2.7092,2.7037,2.7038,2.7047,2.7146,2.7154,2.7162,2.7089,2.709,2.7091,2.7145,0,2.6824,2.6875,2.6879,2.6926,2.695,2.6945,2.6972,2.6989,2.6997,2.702,2.7029,2.7055,2.7041,2.705,2.7072,2.7083,2.7112,2.7079,2.7114,2.7115,2.7109,2.7171,2.7179,2.7229,2.7152,2.7153,2.7154,0,2.6884,2.6906,2.6955,2.6976,2.6986,2.701,2.7035,2.7057,2.7077,2.7082,2.7099,2.7098,2.7131,2.711,2.7155,2.7133,2.7148,2.7156,2.7158,2.7161,2.7137,2.7177,2.7245,2.7252,2.7165,2.7164,2.7163,0,2.692,2.6961,2.6996,2.7007,2.7031,2.7048,2.706,2.7079,2.7095,2.7118,2.7129,2.7155,2.7169,2.7191,2.7197,2.7181,2.7243,2.7223,2.7249,2.7249,2.7262,2.7261,2.7333,2.7271,2.7271,2.7271,2.7271,0,2.6971,2.7002,2.7013,2.7035,2.707,2.7074,2.7109,2.7119,2.7137,2.7162,2.7159,2.7183,2.719,2.7216,2.7222,2.7259,2.7266,2.7271,2.7272,2.7272,2.7271,2.7281,2.7278,2.7273,2.7273,2.7272,2.7272,0,2.7016,2.7025,2.7063,2.7084,2.709,2.7115,2.7133,2.7155,2.7164,2.7195,2.7203,2.7217,2.7247,2.7256,2.7292,2.7296,2.7341,2.7339,2.7334,2.7334,2.736,2.7358,2.7441,2.7453,2.7383,2.7384,2.7384,0,2.7048,2.7072,2.7096,2.7112,2.7124,2.715,2.7167,2.7173,2.7191,2.7218,2.7237,2.7267,2.729,2.7339,2.7353,2.7381,2.738,2.7408,2.7385,2.7384,2.7382,2.738,2.7383,2.7412,2.7413,2.7413,2.7414,0,2.7105,2.7109,2.7132,2.7159,2.7179,2.72,2.722,2.7234,2.7244,2.7264,2.7295,2.7314,2.7352,2.7382,2.7411,2.7424,2.7421,2.7422,2.7429,2.7428,2.7425,2.7428,2.7346,2.7419,2.7419,2.7418,2.7418,2.7418,2.7145,2.7167,2.7187,2.7215,2.7231,2.725,2.7272,2.7284,2.731,2.734,2.7343,2.7377,2.7399,2.7438,2.7453,2.748,2.7472,2.7483,2.7486,2.7489,2.7491,2.7421,2.7486,2.7485,2.7485,2.7485,2.7485,0,2.7202,2.7215,2.7241,2.727,2.7292,2.7287,2.731,2.733,2.7359,2.738,2.7404,2.7441,2.7471,2.7488,2.7518,2.7537,2.7537,2.7545,2.7543,2.7547,2.7496,2.7487,2.7545,2.7545,2.7545,2.7545,2.7545,2.7544,2.7234,2.7271,2.7277,2.7323,2.7336,2.7369,2.7383,2.7402,2.7418,2.7459,2.7484,2.7495,2.7515,2.7547,2.7575,2.7579,2.7591,2.76,2.7604,2.7556,2.755,2.7544,2.7535,2.7603,2.7603,2.7652,2.7653,2.7653]},{"header":{"parameterUnit":"m.s-1","parameterCategory":1,"la1":30.2991,"la2":30.254,"lo1":-89.0895,"lo2":-89.0444,"dy":0.0017,"dx":0.0017,"nx":28,"ny":28,"refTime":"2023-10-16T03:00:00:Z","depth":0,"parameterNumber":3,"parameterNumberName":"V-component_of_WINDS"},"data":[0,0,0,0,0,0,0,0,0,0,0,0,0,0,0,0,0,0,0,0,0,0,0,0,0,0,0,0,0,0,0,0,0,0,0,0,0,0,0,0,0,0,0,0,0,0,0,0,0,0,0,0,0,0,0,0,0,0,-6.9294,-6.9295,0,-6.941,-6.9411,-6.9413,-6.9389,-6.9387,-6.9385,-6.9383,-6.9497,-6.9502,-6.9507,0,0,0,0,0,0,0,0,0,0,0,0,0,-6.9049,-6.9053,-6.9294,-6.9295,-6.9297,-6.941,-6.9411,-6.9413,-6.939,-6.9387,-6.9385,-6.9382,-6.9495,-6.9501,-6.9507,0,0,0,0,0,0,0,0,0,0,0,0,0,-6.9159,-6.9055,-6.9293,-6.9299,-6.9301,-6.9409,-6.9411,-6.9413,-6.939,-6.9387,-6.9384,-6.9381,-6.9493,-6.9501,-6.9508,-6.9617,0,0,-6.9531,-6.9534,0,0,0,0,0,0,0,0,-6.9153,-6.9168,-6.9297,-6.9299,-6.9301,-6.9382,-6.9367,-6.9482,-6.9391,-6.9356,-6.9383,-6.9379,-6.9461,-6.9471,-6.9499,-6.9623,-6.9627,-6.9531,-6.9536,-6.9539,-6.9541,0,0,0,0,0,0,0,-6.9145,-6.9163,-6.934,-6.9298,-6.9301,-6.9294,-6.9307,-6.9388,-6.9424,-6.9359,-6.9357,-6.9372,-6.9461,-6.9492,-6.9502,-6.9629,-6.9531,-6.9538,-6.9543,-6.9545,-6.985,-6.9853,0,0,0,0,0,0,-6.9136,-6.9157,-6.9336,-6.9343,-6.9218,-6.9301,-6.9315,-6.9359,-6.9424,-6.9431,-6.9374,-6.937,-6.9481,-6.9493,-6.9506,-6.964,-6.9539,-6.9546,-6.955,-6.9846,-6.9851,-6.9855,0,0,0,0,0,0,-6.9131,-6.9152,-6.9331,-6.925,-6.9272,-6.9309,-6.9359,-6.9363,-6.9394,-6.9436,-6.9441,-6.94,-6.9479,-6.9495,-6.9591,-6.9643,-6.955,-6.9556,-6.9842,-6.9848,-6.9853,-6.9907,0,0,0,0,0,0,-6.9124,-6.9151,-6.9193,-6.9251,-6.9276,-6.9415,-6.9362,-6.9368,-6.9407,-6.9403,-6.9461,-6.9467,-6.9478,-6.958,-6.9598,-6.9652,-6.9562,-6.9837,-6.9845,-6.9851,-6.99,-6.9913,-6.9924,0,0,0,0,0,-6.9115,-6.9202,-6.9195,-6.9217,-6.933,-6.9418,-6.9433,-6.9445,-6.9412,-6.9455,-6.9482,-6.9465,-6.9634,-6.959,-6.961,-6.9667,-6.9834,-6.9843,-6.985,-6.9895,-6.9911,-6.9924,0,0,0,0,0,0,-6.9147,-6.921,-6.9203,-6.9311,-6.936,-6.9414,-6.9468,-6.9461,-6.9518,-6.9512,-6.9523,-6.9536,-6.9633,-6.9659,-6.9608,-6.9777,-6.9729,-6.9742,-6.9756,-6.9772,-6.9783,-6.9775,-6.9568,0,0,0,0,0,-6.9167,-6.9235,-6.9285,-6.9375,-6.9401,-6.9431,-6.9469,-6.9475,-6.9525,-6.9545,-6.9578,-6.9627,-6.9691,-6.9733,-6.9794,-6.9904,-6.9917,-6.9954,-6.9965,-6.9975,-6.9986,-7.0048,-7.0065,-6.9881,-6.9881,-6.9881,0,0,-6.9208,-6.9251,-6.9292,-6.9383,-6.9421,-6.949,-6.9448,-6.9522,-6.9573,-6.9555,-6.9648,-6.9675,-6.9729,-6.9834,-6.9881,-6.9858,-7.004,-6.9985,-6.9993,-6.9998,-7.0058,-7.0075,-7.0091,-6.9887,-6.9886,-6.9885,0,0,-6.9319,-6.9357,-6.9438,-6.9479,-6.9538,-6.9558,-6.9578,-6.9634,-6.9652,-6.9746,-6.9735,-6.9795,-6.9905,-6.9945,-6.998,-7.0109,-7.0096,-7.0128,-7.019,-7.0251,-7.0265,-7.0278,-7.0325,-7.0342,-7.0139,-7.0139,-7.0139,0,-6.9361,-6.9466,-6.948,-6.9557,-6.9597,-6.9587,-6.9669,-6.9707,-6.9783,-6.9811,-6.9785,-6.9924,-6.996,-7.0074,-7.0106,-7.0134,-7.0157,-7.0121,-7.0262,-7.0275,-7.0288,-7.0333,-7.035,-7.0142,-7.0142,-7.0142,-7.0141,0,-6.9517,-6.959,-6.9648,-6.9725,-6.9772,-6.985,-6.9875,-6.9921,-6.9923,-6.9946,-7.0042,-7.0085,-7.0156,-7.0183,-7.0185,-7.0299,-7.0283,-7.026,-7.0212,-7.0309,-7.0351,-7.0368,-7.0147,-7.0146,-7.0145,-7.0144,0,0,-6.9649,-6.9735,-6.9755,-6.9791,-6.9858,-6.9914,-6.9992,-7.0064,-7.0103,-7.0156,-7.0223,-7.0318,-7.0297,-7.0337,-7.0343,-7.0396,-7.0497,-7.0366,-7.0368,-7.039,-7.0626,-7.0644,-7.0663,-7.0489,-7.0493,-7.0495,-7.0622,0,-6.9766,-6.9907,-6.9923,-7.0047,-7.0115,-7.0108,-7.0177,-7.0225,-7.0248,-7.0309,-7.0334,-7.0402,-7.0369,-7.0393,-7.0446,-7.0474,-7.0545,-7.0465,-7.0551,-7.0553,-7.0538,-7.0685,-7.0704,-7.0821,-7.0639,-7.0641,-7.0643,0,-6.9921,-6.9982,-7.0115,-7.0174,-7.0203,-7.0265,-7.0333,-7.0391,-7.0445,-7.0459,-7.0505,-7.0505,-7.0585,-7.0535,-7.0647,-7.0592,-7.0628,-7.0648,-7.0653,-7.0661,-7.0604,-7.0698,-7.0859,-7.0876,-7.0669,-7.0667,-7.0665,0,-7.0005,-7.012,-7.0215,-7.0245,-7.0317,-7.0361,-7.0392,-7.0444,-7.0486,-7.0545,-7.0573,-7.064,-7.0677,-7.0728,-7.0746,-7.0708,-7.0857,-7.0808,-7.0871,-7.087,-7.0902,-7.09,-7.1071,-7.0925,-7.0925,-7.0924,-7.0924,0,-7.0135,-7.0216,-7.0254,-7.0312,-7.0404,-7.0421,-7.0511,-7.054,-7.0587,-7.065,-7.0647,-7.0706,-7.0726,-7.0789,-7.0803,-7.0894,-7.091,-7.0923,-7.0926,-7.0924,-7.0923,-7.0948,-7.094,-7.0929,-7.0928,-7.0927,-7.0926,0,-7.0244,-7.0273,-7.0376,-7.0436,-7.0453,-7.0518,-7.0569,-7.0625,-7.0649,-7.073,-7.0749,-7.0786,-7.086,-7.0884,-7.0972,-7.0981,-7.1088,-7.1083,-7.107,-7.1071,-7.1132,-7.1126,-7.1326,-7.1353,-7.1188,-7.119,-7.1191,0,-7.0325,-7.0388,-7.0456,-7.05,-7.0534,-7.0603,-7.0648,-7.0668,-7.0714,-7.0783,-7.0831,-7.0905,-7.0965,-7.1083,-7.1117,-7.1185,-7.1182,-7.1247,-7.1192,-7.1188,-7.1184,-7.118,-7.1187,-7.1257,-7.1259,-7.126,-7.1261,0,-7.0466,-7.0478,-7.0543,-7.0615,-7.0669,-7.0725,-7.0779,-7.0815,-7.0843,-7.0895,-7.0972,-7.1019,-7.1111,-7.1184,-7.1254,-7.1285,-7.1278,-7.1279,-7.1297,-7.1295,-7.1286,-7.1293,-7.1099,-7.1274,-7.1273,-7.1272,-7.1271,-7.1271,-7.0564,-7.0621,-7.0679,-7.0752,-7.0796,-7.0847,-7.0904,-7.0936,-7.1001,-7.1079,-7.1087,-7.117,-7.1224,-7.1318,-7.1353,-7.1418,-7.1399,-7.1425,-7.1431,-7.1438,-7.1443,-7.1276,-7.143,-7.143,-7.143,-7.1429,-7.1429,0,-7.0705,-7.0743,-7.0811,-7.0889,-7.0947,-7.0938,-7.0998,-7.1047,-7.1121,-7.1173,-7.1234,-7.1323,-7.1395,-7.1435,-7.1507,-7.1551,-7.155,-7.1569,-7.1566,-7.1574,-7.1455,-7.1433,-7.1569,-7.1569,-7.1569,-7.1569,-7.1569,-7.1569,-7.0786,-7.0882,-7.0901,-7.1019,-7.1056,-7.1139,-7.1175,-7.1222,-7.1265,-7.1365,-7.1426,-7.1453,-7.1501,-7.1576,-7.1642,-7.1652,-7.1678,-7.17,-7.1708,-7.1596,-7.1582,-7.1568,-7.1547,-7.1706,-7.1706,-7.1822,-7.1823,-7.1824]}]]